• In Netherlands
  • List of Countries
  • For 7 days
  • Water Temperature
  • Satellite Maps
  • Weather Map
  • Weather Widgets
  • user-avatar
    Login

    Hourly Weather Shusha

    Today, 24 May, Thursday

    Time Temperature Precipitation Wind Pressure Humidity
    00:00 +13°C° 0 mm 3 mps 662 mmHg 48%
    01:00 +12°C° 0 mm 3 mps 662 mmHg 45%
    02:00 +12°C° 0 mm 3 mps 662 mmHg 43%
    03:00 +13°C° 0 mm 3 mps 661 mmHg 37%
    04:00 +13°C° 0 mm 3 mps 661 mmHg 38%
    05:00 +15°C° 0 mm 2 mps 662 mmHg 40%
    06:00 +15°C° 0 mm 2 mps 662 mmHg 41%
    07:00 +17°C° 0 mm 2 mps 662 mmHg 37%
    08:00 +19°C° 0 mm 2 mps 663 mmHg 33%
    09:00 +21°C° 0 mm 2 mps 663 mmHg 31%
    10:00 +23°C° 0 mm 2 mps 663 mmHg 31%
    11:00 +24°C° 0 mm 2 mps 663 mmHg 30%
    12:00 +25°C° 0 mm 3 mps 663 mmHg 29%
    13:00 +25°C° 0 mm 3 mps 662 mmHg 29%
    14:00 +25°C° 0 mm 3 mps 662 mmHg 29%
    15:00 +24°C° 0 mm 2 mps 661 mmHg 30%
    16:00 +23°C° 0 mm 2 mps 661 mmHg 33%
    17:00 +23°C° 0 mm 2 mps 661 mmHg 37%
    18:00 +22°C° 0 mm 1 mps 660 mmHg 40%
    19:00 +19°C° 0 mm 2 mps 660 mmHg 42%
    20:00 +17°C° 0 mm 2 mps 659 mmHg 44%
    21:00 +16°C° 0 mm 2 mps 659 mmHg 47%
    22:00 +15°C° 0 mm 2 mps 659 mmHg 47%
    23:00 +15°C° 0 mm 2 mps 658 mmHg 47%

    Tomorrow, 25 May, Friday

    Time Temperature Precipitation Wind Pressure Humidity
    00:00 +15°C° 0 mm 2 mps 658 mmHg 47%
    01:00 +14°C° 0 mm 2 mps 658 mmHg 47%
    02:00 +14°C° 0 mm 2 mps 658 mmHg 47%
    03:00 +14°C° 0 mm 2 mps 658 mmHg 46%
    04:00 +15°C° 0 mm 2 mps 658 mmHg 47%
    05:00 +15°C° 0 mm 2 mps 658 mmHg 48%
    06:00 +16°C° 0 mm 2 mps 658 mmHg 48%
    07:00 +18°C° 0 mm 2 mps 659 mmHg 44%
    08:00 +20°C° 0 mm 2 mps 659 mmHg 40%
    09:00 +23°C° 0 mm 2 mps 659 mmHg 36%
    10:00 +24°C° 0.1 mm 2 mps 659 mmHg 35%
    11:00 +25°C° 0.1 mm 3 mps 659 mmHg 34%
    12:00 +25°C° 0.1 mm 3 mps 659 mmHg 33%
    13:00 +26°C° 0.2 mm 3 mps 659 mmHg 34%
    14:00 +26°C° 0.2 mm 3 mps 658 mmHg 34%
    15:00 +26°C° 0.2 mm 3 mps 658 mmHg 35%
    16:00 +25°C° 0.1 mm 2 mps 658 mmHg 38%
    17:00 +24°C° 0.1 mm 2 mps 658 mmHg 42%
    18:00 +24°C° 0.1 mm 2 mps 658 mmHg 46%
    19:00 +21°C° 0.1 mm 2 mps 657 mmHg 50%
    20:00 +19°C° 0.1 mm 2 mps 657 mmHg 54%
    21:00 +17°C° 0.1 mm 2 mps 657 mmHg 58%
    22:00 +17°C° 0 mm 2 mps 657 mmHg 58%
    23:00 +17°C° 0 mm 2 mps 657 mmHg 59%

    Day after tomorrow, 26 May, Saturday

    Time Temperature Precipitation Wind Pressure Humidity
    00:00 +16°C° 0 mm 2 mps 657 mmHg 59%
    01:00 +16°C° 0 mm 2 mps 657 mmHg 59%
    02:00 +16°C° 0 mm 2 mps 657 mmHg 58%
    03:00 +16°C° 0 mm 2 mps 657 mmHg 58%
    04:00 +16°C° 0 mm 2 mps 657 mmHg 58%
    05:00 +17°C° 0 mm 2 mps 658 mmHg 57%
    06:00 +17°C° 0 mm 2 mps 658 mmHg 57%
    07:00 +19°C° 0 mm 2 mps 659 mmHg 51%
    08:00 +21°C° 0 mm 2 mps 659 mmHg 45%
    09:00 +24°C° 0 mm 2 mps 660 mmHg 39%
    10:00 +25°C° 0 mm 2 mps 660 mmHg 37%
    11:00 +26°C° 0 mm 3 mps 660 mmHg 36%
    12:00 +27°C° 0 mm 3 mps 660 mmHg 34%
    13:00 +27°C° 0.1 mm 3 mps 660 mmHg 34%
    14:00 +27°C° 0.1 mm 3 mps 660 mmHg 34%
    15:00 +27°C° 0.1 mm 3 mps 660 mmHg 34%
    16:00 +26°C° 0.2 mm 2 mps 659 mmHg 39%
    17:00 +25°C° 0.2 mm 2 mps 659 mmHg 44%
    18:00 +24°C° 0.2 mm 2 mps 659 mmHg 48%
    19:00 +21°C° 0 mm 2 mps 659 mmHg 53%
    20:00 +20°C° 0 mm 2 mps 659 mmHg 58%
    21:00 +18°C° 0 mm 2 mps 659 mmHg 62%
    22:00 +17°C° 0 mm 2 mps 660 mmHg 62%
    23:00 +17°C° 0 mm 2 mps 660 mmHg 63%

    27 May, Sunday

    Time Temperature Precipitation Wind Pressure Humidity
    00:00 +17°C° 0 mm 2 mps 660 mmHg 63%
    01:00 +16°C° 0 mm 2 mps 660 mmHg 63%
    02:00 +16°C° 0 mm 2 mps 660 mmHg 64%
    03:00 +16°C° 0 mm 2 mps 661 mmHg 65%
    04:00 +16°C° 0 mm 1 mps 661 mmHg 64%
    05:00 +18°C° 0 mm 1 mps 662 mmHg 64%
    06:00 +18°C° 0 mm 1 mps 662 mmHg 63%
    07:00 +19°C° 0 mm 2 mps 663 mmHg 59%
    08:00 +20°C° 0 mm 3 mps 663 mmHg 56%
    09:00 +21°C° 0 mm 4 mps 664 mmHg 52%
    10:00 +22°C° 0.1 mm 5 mps 664 mmHg 51%
    11:00 +22°C° 0.1 mm 5 mps 664 mmHg 50%
    12:00 +22°C° 0.1 mm 6 mps 664 mmHg 49%
    13:00 +22°C° 0.1 mm 6 mps 664 mmHg 50%
    14:00 +22°C° 0.1 mm 6 mps 664 mmHg 50%
    15:00 +21°C° 0.1 mm 6 mps 664 mmHg 51%
    16:00 +20°C° 0.1 mm 6 mps 664 mmHg 55%
    17:00 +19°C° 0.1 mm 5 mps 664 mmHg 59%
    18:00 +17°C° 0.1 mm 4 mps 664 mmHg 63%
    19:00 +15°C° 0 mm 4 mps 664 mmHg 67%
    20:00 +13°C° 0 mm 3 mps 664 mmHg 71%
    21:00 +13°C° 0 mm 2 mps 664 mmHg 75%
    22:00 +13°C° 0 mm 2 mps 664 mmHg 76%
    23:00 +12°C° 0 mm 1 mps 664 mmHg 76%

    28 May, Monday

    Time Temperature Precipitation Wind Pressure Humidity
    00:00 +12°C° 0 mm 1 mps 664 mmHg 76%
    01:00 +12°C° 0 mm 1 mps 663 mmHg 76%
    02:00 +11°C° 0 mm 1 mps 663 mmHg 76%
    03:00 +11°C° 0 mm 1 mps 663 mmHg 76%
    04:00 +12°C° 0 mm 1 mps 663 mmHg 73%
    05:00 +13°C° 0 mm 1 mps 663 mmHg 70%
    06:00 +14°C° 0 mm 1 mps 663 mmHg 66%
    07:00 +16°C° 0 mm 1 mps 664 mmHg 59%
    08:00 +18°C° 0 mm 1 mps 664 mmHg 52%
    09:00 +19°C° 0 mm 2 mps 664 mmHg 45%
    10:00 +21°C° 0 mm 2 mps 664 mmHg 42%
    11:00 +23°C° 0 mm 2 mps 664 mmHg 39%
    12:00 +24°C° 0 mm 2 mps 663 mmHg 37%
    13:00 +25°C° 0.1 mm 3 mps 663 mmHg 37%
    14:00 +25°C° 0.1 mm 3 mps 662 mmHg 36%
    15:00 +25°C° 0.1 mm 3 mps 662 mmHg 36%
    16:00 +25°C° 0.2 mm 2 mps 662 mmHg 40%
    17:00 +24°C° 0.2 mm 2 mps 661 mmHg 43%
    18:00 +23°C° 0.2 mm 2 mps 661 mmHg 47%
    19:00 +20°C° 0 mm 2 mps 661 mmHg 50%
    20:00 +19°C° 0 mm 1 mps 661 mmHg 54%
    21:00 +18°C° 0 mm 1 mps 661 mmHg 58%
    22:00 +18°C° 0 mm 1 mps 661 mmHg 58%
    23:00 +16°C° 0 mm 1 mps 661 mmHg 58%

    29 May, Tuesday

    Time Temperature Precipitation Wind Pressure Humidity
    00:00 +16°C° 0 mm 1 mps 661 mmHg 58%
    01:00 +16°C° 0 mm 1 mps 660 mmHg 59%
    02:00 +15°C° 0 mm 1 mps 660 mmHg 61%
    03:00 +15°C° 0 mm 1 mps 660 mmHg 63%
    04:00 +15°C° 0 mm 1 mps 660 mmHg 62%
    05:00 +16°C° 0 mm 1 mps 661 mmHg 60%
    06:00 +18°C° 0 mm 1 mps 661 mmHg 59%
    07:00 +19°C° 0 mm 1 mps 662 mmHg 53%
    08:00 +20°C° 0 mm 2 mps 662 mmHg 48%
    09:00 +21°C° 0 mm 3 mps 663 mmHg 42%
    10:00 +22°C° 0 mm 3 mps 663 mmHg 41%
    11:00 +23°C° 0 mm 4 mps 662 mmHg 40%
    12:00 +23°C° 0 mm 5 mps 662 mmHg 39%
    13:00 +23°C° 0.1 mm 5 mps 662 mmHg 41%
    14:00 +23°C° 0.1 mm 5 mps 662 mmHg 43%
    15:00 +23°C° 0.1 mm 6 mps 661 mmHg 45%
    16:00 +21°C° 0 mm 6 mps 661 mmHg 49%
    17:00 +19°C° 0 mm 5 mps 661 mmHg 53%
    18:00 +17°C° 0 mm 5 mps 661 mmHg 57%
    19:00 +15°C° 0 mm 4 mps 661 mmHg 59%
    20:00 +14°C° 0 mm 4 mps 661 mmHg 61%
    21:00 +13°C° 0 mm 3 mps 661 mmHg 63%
    22:00 +12°C° 0 mm 3 mps 661 mmHg 63%
    23:00 +12°C° 0 mm 3 mps 661 mmHg 64%
    Show more